Home   Weather   Salzgitter   Past weeks

Flag for Germany Past Weather in Salzgitter, Lower Saxony, Germany — Yesterday and Last 2 Weeks

Now
25 °F

Ice fog.


Feels Like: 19 °F
Forecast: 15 / 26 °F
Wind: 5 mph from Northwest

Location: Braunschweig Wolfsburg

Current Time: Jan 17, 2017 at 8:05:24 am

Latest Report: Jan 17, 2017 at 7:20 am


Visibility: 3 mi

Pressure: 30.54 "Hg

Humidity: 100%

Dew Point: 25 °F

Location of SalzgitterLocation

Past Weather in Salzgitter — Graph

°F

Salzgitter Temperature Yesterday

Maximum temperature yesterday: 28 °F (at 1:20 pm)
Minimum temperature yesterday: 21 °F (at 6:50 am)
Average temperature yesterday: 26 °F

High & Low Weather Summary for the Past Weeks

 TemperatureHumidityPressure
High43 °F (Jan 12, 12:50 pm)100% (Jan 2, 8:20 am)30.77 "Hg (Jan 2, 8:20 am)
Low12 °F (Jan 6, 6:50 am)48% (Jan 8, 9:50 am)28.94 "Hg (Jan 13, 6:50 am)
Average32 °F84%30.01 "Hg
* Reported Jan 2 7:20 am — Jan 17 6:50 am, Salzgitter, Weather by CustomWeather, © 2017

Note: Actual official high and low records may vary slightly from our data, if they occured in-between our weather recording intervals... More about our weather records

Advertising

Salzgitter Weather History for the Previous 24 Hours

Scroll right to see more
 ConditionsComfort  
Time TempWeatherWind HumidityBarometerVisibility
6:50 am
Tue, Jan 17
25 °FIce fog.5 mph100%30.54 "Hg3 mi
7:50 pm
Mon, Jan 16
27 °FOvercast.3 mph100%30.39 "Hg4 mi
7:20 pm27 °FPassing clouds.3 mph100%30.39 "Hg4 mi
6:50 pm28 °FPassing clouds.3 mph93%30.39 "Hg4 mi
6:20 pm28 °FMostly cloudy.3 mph100%30.39 "Hg4 mi
5:20 pm28 °FLow clouds.3 mph93%30.36 "Hg4 mi
4:20 pm27 °FPartly sunny.5 mph100%30.36 "Hg5 mi
3:50 pm27 °FPartly sunny.5 mph100%30.36 "Hg4 mi
3:20 pm27 °FPartly sunny.6 mph100%30.33 "Hg5 mi
2:50 pm28 °FPassing clouds.5 mph100%30.33 "HgN/A
2:20 pm27 °FScattered clouds.5 mph100%30.33 "Hg6 mi
1:20 pm28 °FScattered clouds.3 mph93%30.33 "Hg6 mi
12:20 pm27 °FPartly sunny.3 mph100%30.30 "Hg5 mi
11:50 am27 °FPartly sunny.3 mph100%30.30 "Hg4 mi
11:20 am25 °FPartly sunny.3 mph100%30.30 "Hg4 mi
10:20 am25 °FOvercast.3 mph93%30.30 "Hg5 mi
9:20 am23 °FPartly sunny.3 mph100%30.27 "Hg5 mi
8:50 am23 °FLow clouds.3 mph93%30.27 "Hg4 mi
8:20 am21 °FIce fog.3 mph100%30.27 "Hg2 mi
Weather by CustomWeather, © 2017

See weather overviewHow to use our weather pages